Location: Leeds
(37.2390°N, 113.3580°W)
Time: 07:53:36
(UTC-06:00)

ISS - All Passes

Search period start: 01 August 2014 00:00
Search period end: 11 August 2014 00:00
Orbit: 411 x 419 km, 51.6° (Epoch: 01 August)

Date Brightness Start Highest point End Pass type
(mag) Time Alt. Az. Time Alt. Az. Time Alt. Az.
01 Aug - 00:49:15 10° NW 00:51:03 14° NNW 00:52:51 10° N visible
01 Aug - 04:05:48 10° N 04:07:05 12° NNE 04:08:23 10° NE visible
01 Aug - 05:41:08 10° NW 05:44:26 53° NE 05:47:43 10° ESE visible
01 Aug - 07:19:01 10° W 07:20:48 14° SW 07:22:36 10° SSW daylight
01 Aug - 22:21:48 10° SW 22:25:03 55° SE 22:28:19 10° ENE visible
01 Aug - 23:59:31 10° WNW 00:01:59 19° NNW 00:04:28 10° NNE night (unlit)
02 Aug - 04:52:28 10° NNW 04:55:30 31° NNE 04:58:32 10° E visible
02 Aug - 06:29:18 10° WNW 06:32:08 25° SW 06:34:56 10° S daylight
02 Aug - 21:33:24 10° SSW 21:36:18 28° SE 21:39:13 10° ENE visible
02 Aug - 23:10:03 10° W 23:12:58 28° NNW 23:15:55 10° NNE visible
03 Aug - 04:03:54 10° NNW 04:06:30 21° NNE 04:09:07 10° E visible
03 Aug - 05:40:08 10° WNW 05:43:23 48° SW 05:46:37 10° SSE visible
03 Aug - 20:45:34 10° SSE 20:47:36 15° SE 20:49:39 10° E daylight
03 Aug - 22:20:48 10° WSW 22:24:01 46° NW 22:27:15 10° NE visible
04 Aug - 00:00:26 10° NW 00:01:25 11° NNW 00:02:23 10° N visible
04 Aug - 03:15:27 10° NNW 03:17:26 15° NNE 03:19:25 10° ENE visible
04 Aug - 04:51:12 10° NW 04:54:34 87° NE 04:57:55 10° SE visible
04 Aug - 21:31:49 10° SW 21:35:08 87° NW 21:38:28 10° NE visible
04 Aug - 23:10:19 10° WNW 23:12:16 15° NNW 23:14:13 10° NNE visible
05 Aug - 02:27:16 10° N 02:28:17 11° NNE 02:29:19 10° NE night (unlit)
05 Aug - 04:02:25 10° NW 04:05:41 47° NE 04:08:55 10° ESE visible
05 Aug - 05:40:01 10° W 05:42:06 16° SW 05:44:11 10° SSW visible
05 Aug - 20:43:06 10° SSW 20:46:18 47° SE 20:49:31 10° ENE daylight
05 Aug - 22:20:37 10° WNW 22:23:11 20° NNW 22:25:45 10° NNE visible
06 Aug - 03:13:44 10° NNW 03:16:42 28° NNE 03:19:40 10° E night (unlit)
06 Aug - 04:50:26 10° WNW 04:53:23 28° SW 04:56:18 10° SSE night (unlit)
06 Aug - 19:54:46 10° S 19:57:32 25° SE 20:00:19 10° ENE daylight
06 Aug - 21:31:09 10° W 21:34:09 31° NNW 21:37:10 10° NNE visible
07 Aug - 02:25:10 10° NNW 02:27:39 19° NNE 02:30:09 10° ENE night (unlit)
07 Aug - 04:01:18 10° WNW 04:04:35 55° SW 04:07:52 10° SE night (unlit)
07 Aug - 19:07:05 10° SSE 19:08:49 14° SE 19:10:32 10° E daylight
07 Aug - 20:41:56 10° WSW 20:45:11 52° NW 20:48:27 10° NE daylight
07 Aug - 22:21:18 10° NW 22:22:31 12° NNW 22:23:44 10° N visible
08 Aug - 01:36:43 10° N 01:38:32 14° NNE 01:40:21 10° NE visible
08 Aug - 03:12:22 10° NW 03:15:44 77° NE 03:19:04 10° SE night (unlit)
08 Aug - 19:52:58 10° SW 19:56:16 83° SE 19:59:36 10° NE daylight
08 Aug - 21:31:16 10° WNW 21:33:21 15° NNW 21:35:26 10° NNE visible
09 Aug - 00:48:41 10° N 00:49:21 10° NNE 00:50:02 10° NNE visible
09 Aug - 02:23:35 10° NW 02:26:47 41° NE 02:29:59 10° ESE night (unlit)
09 Aug - 04:00:56 10° W 04:03:15 18° SW 04:05:35 10° S night (unlit)
09 Aug - 19:04:17 10° SSW 19:07:25 41° SE 19:10:35 10° ENE daylight
09 Aug - 20:41:35 10° W 20:44:15 22° NNW 20:46:55 10° NNE daylight
10 Aug - 01:34:53 10° NNW 01:37:46 26° NNE 01:40:38 10° E night (unlit)
10 Aug - 03:11:27 10° WNW 03:14:30 32° SW 03:17:31 10° SSE night (unlit)
10 Aug - 18:16:01 10° S 18:18:38 22° SE 18:21:15 10° ENE daylight
10 Aug - 19:52:08 10° W 19:55:11 34° NNW 19:58:16 10° NNE daylight
